Time,TemperatureF,DewpointF,PressureIn,WindDirection,WindDirectionDegrees,WindSpeedMPH,WindSpeedGustMPH,Humidity,HourlyPrecipIn,Conditions,Clouds,dailyrainin,SolarRadiationWatts/m^2,SoftwareType,DateUTC
2013-04-22 00:02:00,50.4,35.7,30.15,ESE,112,2.3,2.4,57,0.00,CLR,OVC,0.00,0.0,WeatherDisplay:10.37,2013-04-22 05:02:00,
2013-04-22 00:07:00,50.2,35.5,30.15,ESE,112,3.5,3.5,57,0.00,CLR,OVC,0.00,0.0,WeatherDisplay:10.37,2013-04-22 05:07:00,
2013-04-22 00:12:00,50.0,35.8,30.15,SE,135,3.5,3.5,58,0.00,CLR,OVC,0.00,0.0,WeatherDisplay:10.37,2013-04-22 05:12:00,
2013-04-22 00:17:00,50.2,36.0,30.12,SE,135,4.6,4.6,58,0.00,CLR,OVC,0.00,0.0,WeatherDisplay:10.37,2013-04-22 05:17:00,
2013-04-22 00:22:00,50.0,35.8,30.12,ESE,112,4.6,4.6,58,0.00,CLR,OVC,0.00,0.0,WeatherDisplay:10.37,2013-04-22 05:22:00,
2013-04-22 00:27:00,50.0,35.8,30.12,East,90,4.6,4.6,58,0.00,CLR,OVC,0.00,0.0,WeatherDisplay:10.37,2013-04-22 05:27:00,
2013-04-22 00:32:00,50.0,36.2,30.12,ESE,112,3.5,3.5,59,0.00,CLR,OVC,0.00,0.0,WeatherDisplay:10.37,2013-04-22 05:32:00,
2013-04-22 00:37:00,49.6,35.9,30.12,SE,135,4.6,4.6,59,0.00,CLR,OVC,0.00,0.0,WeatherDisplay:10.37,2013-04-22 05:37:00,
2013-04-22 00:42:00,49.3,36.0,30.12,ESE,112,4.6,4.6,60,0.00,CLR,OVC,0.00,0.0,WeatherDisplay:10.37,2013-04-22 05:42:00,
2013-04-22 00:47:00,49.5,36.1,30.15,ESE,112,4.6,4.6,60,0.00,CLR,OVC,0.00,0.0,WeatherDisplay:10.37,2013-04-22 05:47:00,
2013-04-22 00:52:00,49.5,36.6,30.15,ESE,112,5.8,5.8,61,0.00,CLR,OVC,0.00,0.0,WeatherDisplay:10.37,2013-04-22 05:52:00,
2013-04-22 00:57:00,49.3,36.4,30.15,ESE,112,4.6,4.6,61,0.00,CLR,OVC,0.00,0.0,WeatherDisplay:10.37,2013-04-22 05:57:00,
2013-04-22 01:02:00,49.3,36.4,30.15,ENE,68,3.5,3.5,61,0.00,CLR,OVC,0.00,0.0,WeatherDisplay:10.37,2013-04-22 06:02:00,
2013-04-22 01:07:00,49.3,36.8,30.15,ESE,112,6.9,6.9,62,0.00,CLR,OVC,0.00,0.0,WeatherDisplay:10.37,2013-04-22 06:07:00,
2013-04-22 01:12:00,49.1,36.6,30.15,ESE,112,3.5,3.5,62,0.00,CLR,OVC,0.00,0.0,WeatherDisplay:10.37,2013-04-22 06:12:00,
2013-04-22 01:17:00,49.1,36.6,30.12,ESE,112,3.6,3.6,62,0.00,CLR,OVC,0.00,0.0,WeatherDisplay:10.37,2013-04-22 06:17:00,
2013-04-22 01:22:00,48.9,36.5,30.12,SE,135,3.5,3.5,62,0.00,CLR,OVC,0.00,0.0,WeatherDisplay:10.37,2013-04-22 06:22:00,
2013-04-22 01:27:00,49.1,37.0,30.12,ESE,112,6.9,6.9,63,0.00,CLR,OVC,0.00,0.0,WeatherDisplay:10.37,2013-04-22 06:27:00,
2013-04-22 01:32:00,48.9,36.9,30.12,ESE,112,5.8,5.8,63,0.00,CLR,OVC,0.00,0.0,WeatherDisplay:10.37,2013-04-22 06:32:00,
2013-04-22 01:37:00,48.7,36.7,30.12,East,90,5.8,5.8,63,0.00,CLR,OVC,0.00,0.0,WeatherDisplay:10.37,2013-04-22 06:37:00,
2013-04-22 01:42:00,48.7,36.7,30.12,ESE,112,3.5,3.5,63,0.00,CLR,OVC,0.00,0.0,WeatherDisplay:10.37,2013-04-22 06:42:00,
2013-04-22 01:47:00,48.7,37.1,30.09,ESE,112,3.5,3.5,64,0.00,CLR,OVC,0.00,0.0,WeatherDisplay:10.37,2013-04-22 06:47:00,
2013-04-22 01:52:00,48.6,36.9,30.09,ESE,112,3.5,3.5,64,0.00,CLR,OVC,0.00,0.0,WeatherDisplay:10.37,2013-04-22 06:52:00,
2013-04-22 01:57:00,48.6,36.9,30.09,ESE,112,3.5,3.6,64,0.00,CLR,OVC,0.00,0.0,WeatherDisplay:10.37,2013-04-22 06:57:00,
2013-04-22 02:02:00,48.6,36.9,30.09,ENE,68,3.8,3.8,64,0.00,CLR,OVC,0.00,0.0,WeatherDisplay:10.37,2013-04-22 07:02:00,
2013-04-22 02:07:00,48.4,37.2,30.09,ESE,112,3.6,3.6,65,0.00,CLR,OVC,0.00,0.0,WeatherDisplay:10.37,2013-04-22 07:07:00,
2013-04-22 02:12:00,48.2,37.0,30.09,ESE,112,3.1,3.1,65,0.00,CLR,OVC,0.00,0.0,WeatherDisplay:10.37,2013-04-22 07:12:00,
2013-04-22 02:17:00,48.2,37.0,30.12,ESE,112,4.6,4.6,65,0.00,CLR,OVC,0.00,0.0,WeatherDisplay:10.37,2013-04-22 07:17:00,
2013-04-22 02:22:00,48.4,37.2,30.12,SE,135,5.8,5.8,65,0.00,CLR,OVC,0.00,0.0,WeatherDisplay:10.37,2013-04-22 07:22:00,
2013-04-22 02:27:00,48.2,37.0,30.12,SE,135,3.8,3.8,65,0.00,CLR,OVC,0.00,0.0,WeatherDisplay:10.37,2013-04-22 07:27:00,
2013-04-22 02:32:00,48.2,37.0,30.12,ESE,112,4.6,4.6,65,0.00,CLR,OVC,0.00,0.0,WeatherDisplay:10.37,2013-04-22 07:32:00,
2013-04-22 02:37:00,48.4,37.2,30.12,ESE,112,5.8,5.8,65,0.00,CLR,OVC,0.00,0.0,WeatherDisplay:10.37,2013-04-22 07:37:00,
2013-04-22 02:42:00,48.4,37.2,30.12,ESE,112,4.6,4.6,65,0.00,CLR,OVC,0.00,0.0,WeatherDisplay:10.37,2013-04-22 07:42:00,
2013-04-22 02:47:00,48.2,37.0,30.12,ESE,112,4.6,4.6,65,0.00,CLR,OVC,0.00,0.0,WeatherDisplay:10.37,2013-04-22 07:47:00,
2013-04-22 02:52:00,48.2,37.0,30.12,ESE,112,3.5,3.5,65,0.00,CLR,OVC,0.00,0.0,WeatherDisplay:10.37,2013-04-22 07:52:00,
2013-04-22 02:57:00,48.0,37.2,30.12,ESE,112,3.5,3.5,66,0.00,CLR,OVC,0.00,0.0,WeatherDisplay:10.37,2013-04-22 07:57:00,
2013-04-22 03:02:00,47.7,36.9,30.09,ESE,112,4.6,4.6,66,0.00,CLR,OVC,0.00,0.0,WeatherDisplay:10.37,2013-04-22 08:02:00,
2013-04-22 03:07:00,47.3,36.9,30.09,ESE,112,4.6,4.6,67,0.00,CLR,OVC,0.00,0.0,WeatherDisplay:10.37,2013-04-22 08:07:00,
2013-04-22 03:12:00,47.3,36.9,30.09,ESE,112,4.6,4.6,67,0.00,CLR,OVC,0.00,0.0,WeatherDisplay:10.37,2013-04-22 08:12:00,
2013-04-22 03:17:00,46.9,36.9,30.12,East,90,4.6,4.6,68,0.00,CLR,OVC,0.00,0.0,WeatherDisplay:10.37,2013-04-22 08:17:00,
2013-04-22 03:22:00,46.9,36.9,30.12,East,90,4.6,4.6,68,0.00,CLR,OVC,0.00,0.0,WeatherDisplay:10.37,2013-04-22 08:22:00,
2013-04-22 03:27:00,46.6,37.0,30.12,East,90,4.6,4.6,69,0.00,CLR,OVC,0.00,0.0,WeatherDisplay:10.37,2013-04-22 08:27:00,
2013-04-22 03:32:00,46.2,37.0,30.09,ESE,112,4.6,4.6,70,0.00,CLR,OVC,0.00,0.0,WeatherDisplay:10.37,2013-04-22 08:32:00,
2013-04-22 03:37:00,46.0,37.2,30.09,East,90,4.6,4.6,71,0.00,CLR,OVC,0.00,0.0,WeatherDisplay:10.37,2013-04-22 08:37:00,
2013-04-22 03:42:00,46.0,37.5,30.09,ESE,112,5.8,5.8,72,0.00,CLR,OVC,0.00,0.0,WeatherDisplay:10.37,2013-04-22 08:42:00,
2013-04-22 03:47:00,45.7,37.5,30.09,ESE,112,4.6,4.6,73,0.00,CLR,OVC,0.00,0.0,WeatherDisplay:10.37,2013-04-22 08:47:00,
2013-04-22 03:52:00,45.3,37.5,30.09,East,90,4.6,4.6,74,0.00,CLR,OVC,0.00,0.0,WeatherDisplay:10.37,2013-04-22 08:52:00,
2013-04-22 03:57:00,45.3,37.9,30.09,ESE,112,3.6,3.6,75,0.00,CLR,OVC,0.00,0.0,WeatherDisplay:10.37,2013-04-22 08:57:00,
2013-04-22 04:02:00,45.3,37.9,30.09,SE,135,4.0,4.0,75,0.00,CLR,OVC,0.00,0.0,WeatherDisplay:10.37,2013-04-22 09:02:00,
2013-04-22 04:07:00,45.5,38.7,30.09,ESE,112,4.6,4.6,77,0.00,CLR,OVC,0.00,0.0,WeatherDisplay:10.37,2013-04-22 09:07:00,
2013-04-22 04:12:00,45.5,38.7,30.09,East,90,4.6,4.6,77,0.00,CLR,OVC,0.00,0.0,WeatherDisplay:10.37,2013-04-22 09:12:00,
2013-04-22 04:17:00,45.5,38.4,30.09,ESE,112,3.5,3.5,76,0.00,CLR,OVC,0.00,0.0,WeatherDisplay:10.37,2013-04-22 09:17:00,
2013-04-22 04:22:00,45.5,38.4,30.09,ESE,112,3.5,3.5,76,0.00,CLR,OVC,0.00,0.0,WeatherDisplay:10.37,2013-04-22 09:22:00,
2013-04-22 04:27:00,45.3,38.5,30.09,East,90,4.6,4.6,77,0.00,CLR,OVC,0.00,0.0,WeatherDisplay:10.37,2013-04-22 09:27:00,
2013-04-22 04:32:00,45.3,38.2,30.09,SE,135,4.6,4.6,76,0.00,CLR,OVC,0.00,0.0,WeatherDisplay:10.37,2013-04-22 09:32:00,
2013-04-22 04:37:00,45.3,38.2,30.09,East,90,4.6,4.6,76,0.00,CLR,OVC,0.00,0.0,WeatherDisplay:10.37,2013-04-22 09:37:00,
2013-04-22 04:42:00,45.1,38.0,30.09,ESE,112,4.6,4.6,76,0.00,CLR,OVC,0.00,0.0,WeatherDisplay:10.37,2013-04-22 09:42:00,
2013-04-22 04:47:00,45.3,38.2,30.09,East,90,4.6,4.6,76,0.00,CLR,OVC,0.00,0.0,WeatherDisplay:10.37,2013-04-22 09:47:00,
2013-04-22 04:53:00,45.0,37.8,30.09,ESE,112,3.8,3.8,76,0.00,CLR,OVC,0.00,0.0,WeatherDisplay:10.37,2013-04-22 09:53:00,
2013-04-22 04:58:00,45.0,37.8,30.09,ENE,68,4.6,4.6,76,0.00,CLR,OVC,0.00,0.0,WeatherDisplay:10.37,2013-04-22 09:58:00,
2013-04-22 05:03:00,45.0,37.8,30.09,SE,135,4.6,4.6,76,0.00,CLR,OVC,0.00,0.0,WeatherDisplay:10.37,2013-04-22 10:03:00,
2013-04-22 05:08:00,45.0,37.8,30.09,SE,135,3.5,3.5,76,0.00,CLR,OVC,0.00,0.0,WeatherDisplay:10.37,2013-04-22 10:08:00,
2013-04-22 05:13:00,45.1,37.7,30.09,SE,135,4.6,4.6,75,0.00,CLR,OVC,0.00,0.0,WeatherDisplay:10.37,2013-04-22 10:13:00,
2013-04-22 05:18:00,45.0,37.5,30.09,ESE,112,4.6,4.6,75,0.00,CLR,OVC,0.00,0.0,WeatherDisplay:10.37,2013-04-22 10:18:00,
2013-04-22 05:23:00,45.0,37.5,30.09,ESE,112,4.6,4.6,75,0.00,CLR,OVC,0.00,0.0,WeatherDisplay:10.37,2013-04-22 10:23:00,
2013-04-22 05:28:00,44.6,37.2,30.09,ESE,112,3.6,3.6,75,0.00,CLR,OVC,0.00,0.0,WeatherDisplay:10.37,2013-04-22 10:28:00,
2013-04-22 05:33:00,44.6,37.5,30.09,ESE,112,3.5,3.5,76,0.00,CLR,OVC,0.00,0.0,WeatherDisplay:10.37,2013-04-22 10:33:00,
2013-04-22 05:38:00,44.6,37.5,30.09,ESE,112,3.5,3.5,76,0.00,CLR,OVC,0.00,0.0,WeatherDisplay:10.37,2013-04-22 10:38:00,
2013-04-22 05:43:00,44.6,37.5,30.09,ESE,112,3.5,3.5,76,0.00,CLR,OVC,0.00,0.0,WeatherDisplay:10.37,2013-04-22 10:43:00,
2013-04-22 05:48:00,44.8,37.7,30.09,ESE,112,4.6,4.6,76,0.00,CLR,OVC,0.00,0.0,WeatherDisplay:10.37,2013-04-22 10:48:00,
2013-04-22 05:53:00,44.8,37.7,30.09,ESE,112,4.6,4.6,76,0.00,CLR,OVC,0.00,0.0,WeatherDisplay:10.37,2013-04-22 10:53:00,
2013-04-22 05:58:00,44.8,37.7,30.09,ESE,112,4.6,4.6,76,0.00,CLR,OVC,0.00,0.0,WeatherDisplay:10.37,2013-04-22 10:58:00,
2013-04-22 06:03:00,45.1,38.0,30.09,ESE,112,5.8,5.8,76,0.00,CLR,OVC,0.00,0.0,WeatherDisplay:10.37,2013-04-22 11:03:00,
2013-04-22 06:08:00,45.0,37.8,30.09,ESE,112,4.6,4.6,76,0.00,CLR,OVC,0.00,0.0,WeatherDisplay:10.37,2013-04-22 11:08:00,
2013-04-22 06:13:00,45.0,37.8,30.09,ESE,112,5.8,5.8,76,0.00,CLR,OVC,0.00,0.0,WeatherDisplay:10.37,2013-04-22 11:13:00,
2013-04-22 06:18:00,45.1,38.0,30.09,East,90,4.9,4.9,76,0.00,CLR,OVC,0.00,0.0,WeatherDisplay:10.37,2013-04-22 11:18:00,
2013-04-22 06:23:00,45.1,38.0,30.09,ESE,112,4.6,4.6,76,0.00,CLR,OVC,0.00,0.0,WeatherDisplay:10.37,2013-04-22 11:23:00,
2013-04-22 06:28:00,44.8,37.7,30.09,ESE,112,2.9,2.9,76,0.00,CLR,OVC,0.00,0.0,WeatherDisplay:10.37,2013-04-22 11:28:00,
2013-04-22 06:33:00,45.1,38.0,30.09,ESE,112,5.8,5.8,76,0.00,CLR,OVC,0.00,0.0,WeatherDisplay:10.37,2013-04-22 11:33:00,
2013-04-22 06:38:00,45.0,38.2,30.09,ESE,112,4.6,4.6,77,0.00,CLR,OVC,0.00,0.0,WeatherDisplay:10.37,2013-04-22 11:38:00,
2013-04-22 06:43:00,45.0,38.2,30.09,ESE,112,3.6,3.6,77,0.00,CLR,OVC,0.00,0.0,WeatherDisplay:10.37,2013-04-22 11:43:00,
2013-04-22 06:48:00,45.1,38.4,30.09,East,90,4.6,4.6,77,0.00,CLR,OVC,0.00,0.0,WeatherDisplay:10.37,2013-04-22 11:48:00,
2013-04-22 06:53:00,45.5,38.4,30.09,ESE,112,5.8,5.8,76,0.00,CLR,OVC,0.00,0.0,WeatherDisplay:10.37,2013-04-22 11:53:00,
2013-04-22 06:58:00,45.9,38.7,30.09,ESE,112,4.6,4.6,76,0.00,CLR,OVC,0.00,0.0,WeatherDisplay:10.37,2013-04-22 11:58:00,
2013-04-22 07:03:00,45.9,38.4,30.12,ESE,112,4.6,4.6,75,0.00,CLR,OVC,0.00,0.0,WeatherDisplay:10.37,2013-04-22 12:03:00,
2013-04-22 07:08:00,46.2,38.4,30.12,ESE,112,4.0,4.0,74,0.00,CLR,OVC,0.00,0.0,WeatherDisplay:10.37,2013-04-22 12:08:00,
2013-04-22 07:13:00,46.2,38.4,30.12,ESE,112,5.8,5.8,74,0.00,CLR,OVC,0.00,0.0,WeatherDisplay:10.37,2013-04-22 12:13:00,
2013-04-22 07:18:00,46.4,38.6,30.09,East,90,5.8,5.8,74,0.00,CLR,OVC,0.00,0.0,WeatherDisplay:10.37,2013-04-22 12:18:00,
2013-04-22 07:23:00,47.3,39.4,30.09,SE,135,4.6,4.6,74,0.00,CLR,OVC,0.00,0.0,WeatherDisplay:10.37,2013-04-22 12:23:00,
2013-04-22 07:28:00,47.7,39.4,30.09,ESE,112,3.5,3.5,73,0.00,CLR,OVC,0.00,0.0,WeatherDisplay:10.37,2013-04-22 12:28:00,
2013-04-22 07:33:00,47.7,39.1,30.09,ESE,112,3.5,3.5,72,0.00,CLR,OVC,0.00,0.0,WeatherDisplay:10.37,2013-04-22 12:33:00,
2013-04-22 07:38:00,47.5,38.9,30.09,East,90,5.8,5.8,72,0.00,CLR,OVC,0.00,0.0,WeatherDisplay:10.37,2013-04-22 12:38:00,
2013-04-22 07:43:00,47.5,39.3,30.09,ESE,112,4.7,4.7,73,0.00,CLR,OVC,0.00,0.0,WeatherDisplay:10.37,2013-04-22 12:43:00,
2013-04-22 07:48:00,47.5,38.9,30.09,ESE,112,5.4,5.4,72,0.00,CLR,OVC,0.00,0.0,WeatherDisplay:10.37,2013-04-22 12:48:00,
2013-04-22 07:53:00,47.3,39.1,30.09,ESE,112,4.6,4.6,73,0.00,CLR,OVC,0.00,0.0,WeatherDisplay:10.37,2013-04-22 12:53:00,
2013-04-22 07:58:00,47.7,39.4,30.09,ESE,112,6.0,6.0,73,0.00,CLR,OVC,0.00,0.0,WeatherDisplay:10.37,2013-04-22 12:58:00,
2013-04-22 08:03:00,48.4,39.8,30.12,ESE,112,3.5,3.5,72,0.00,CLR,OVC,0.00,0.0,WeatherDisplay:10.37,2013-04-22 13:03:00,
2013-04-22 08:08:00,49.6,40.6,30.12,ESE,112,4.6,4.6,71,0.00,CLR,OVC,0.00,0.0,WeatherDisplay:10.37,2013-04-22 13:08:00,
2013-04-22 08:13:00,51.3,41.8,30.12,ESE,112,4.6,4.6,70,0.00,CLR,OVC,0.00,0.0,WeatherDisplay:10.37,2013-04-22 13:13:00,
2013-04-22 08:18:00,52.9,42.2,30.12,ESE,112,4.6,4.6,67,0.00,CLR,OVC,0.00,0.0,WeatherDisplay:10.37,2013-04-22 13:18:00,
2013-04-22 08:23:00,54.0,41.6,30.12,SE,135,8.1,8.1,63,0.00,CLR,OVC,0.00,0.0,WeatherDisplay:10.37,2013-04-22 13:23:00,
2013-04-22 08:28:00,54.9,42.1,30.12,ESE,112,4.6,4.6,62,0.00,CLR,OVC,0.00,0.0,WeatherDisplay:10.37,2013-04-22 13:28:00,
2013-04-22 08:33:00,55.6,42.8,30.09,East,90,5.8,5.8,62,0.00,CLR,OVC,0.00,0.0,WeatherDisplay:10.37,2013-04-22 13:33:00,
2013-04-22 08:38:00,56.7,42.9,30.09,ESE,112,4.6,4.6,60,0.00,CLR,OVC,0.00,0.0,WeatherDisplay:10.37,2013-04-22 13:38:00,
2013-04-22 08:43:00,56.8,41.8,30.09,SE,135,11.5,11.5,57,0.00,CLR,OVC,0.00,100.0,WeatherDisplay:10.37,2013-04-22 13:43:00,
2013-04-22 08:49:00,57.0,42.4,30.09,ESE,112,8.1,8.1,58,0.00,CLR,OVC,0.00,0.0,WeatherDisplay:10.37,2013-04-22 13:49:00,
2013-04-22 08:54:00,58.1,43.4,30.09,SSE,158,5.8,5.8,58,0.00,CLR,OVC,0.00,100.0,WeatherDisplay:10.37,2013-04-22 13:54:00,
2013-04-22 08:59:00,58.8,43.1,30.09,ESE,112,7.4,7.4,56,0.00,CLR,OVC,0.00,100.0,WeatherDisplay:10.37,2013-04-22 13:59:00,
2013-04-22 09:04:00,58.8,43.1,30.09,SSE,158,5.8,5.8,56,0.00,CLR,OVC,0.00,100.0,WeatherDisplay:10.37,2013-04-22 14:04:00,
2013-04-22 09:09:00,59.2,43.0,30.09,ESE,112,8.1,8.1,55,0.00,CLR,OVC,0.00,100.0,WeatherDisplay:10.37,2013-04-22 14:09:00,
2013-04-22 09:14:00,59.9,43.7,30.09,SE,135,5.8,5.8,55,0.00,CLR,OVC,0.00,100.0,WeatherDisplay:10.37,2013-04-22 14:14:00,
2013-04-22 09:19:00,60.4,44.2,30.09,SE,135,5.8,5.8,55,0.00,CLR,OVC,0.00,100.0,WeatherDisplay:10.37,2013-04-22 14:19:00,
2013-04-22 09:24:00,61.0,43.7,30.09,ESE,112,6.9,6.9,53,0.00,CLR,OVC,0.00,100.0,WeatherDisplay:10.37,2013-04-22 14:24:00,
2013-04-22 09:29:00,60.8,43.6,30.09,SSE,158,10.5,10.5,53,0.00,CLR,OVC,0.00,100.0,WeatherDisplay:10.37,2013-04-22 14:29:00,
2013-04-22 09:34:00,60.4,43.2,30.09,ESE,112,12.7,12.7,53,0.00,CLR,OVC,0.00,100.0,WeatherDisplay:10.37,2013-04-22 14:34:00,
2013-04-22 09:39:00,61.2,43.9,30.09,SE,135,8.1,8.1,53,0.00,CLR,OVC,0.00,200.0,WeatherDisplay:10.37,2013-04-22 14:39:00,
2013-04-22 09:44:00,61.5,44.2,30.09,ESE,112,8.1,8.1,53,0.00,CLR,OVC,0.00,200.0,WeatherDisplay:10.37,2013-04-22 14:44:00,
2013-04-22 09:49:00,61.9,44.6,30.09,SSE,158,8.1,8.1,53,0.00,CLR,OVC,0.00,200.0,WeatherDisplay:10.37,2013-04-22 14:49:00,
2013-04-22 09:54:00,62.1,44.2,30.09,SE,135,10.4,10.4,52,0.00,CLR,OVC,0.00,200.0,WeatherDisplay:10.37,2013-04-22 14:54:00,
2013-04-22 09:59:00,61.9,44.1,30.09,SSE,158,6.9,6.9,52,0.00,CLR,OVC,0.00,200.0,WeatherDisplay:10.37,2013-04-22 14:59:00,
2013-04-22 10:04:00,61.7,43.9,30.09,SE,135,10.4,10.4,52,0.00,CLR,OVC,0.00,200.0,WeatherDisplay:10.37,2013-04-22 15:04:00,
2013-04-22 10:09:00,62.4,44.6,30.09,SSE,158,8.1,8.1,52,0.00,CLR,OVC,0.00,200.0,WeatherDisplay:10.37,2013-04-22 15:09:00,
2013-04-22 10:14:00,63.5,45.6,30.09,East,90,12.7,12.7,52,0.00,CLR,OVC,0.00,300.0,WeatherDisplay:10.37,2013-04-22 15:14:00,
2013-04-22 10:19:00,63.3,44.9,30.09,SSE,158,8.1,8.1,51,0.00,CLR,OVC,0.00,200.0,WeatherDisplay:10.37,2013-04-22 15:19:00,
2013-04-22 10:24:00,63.9,45.4,30.09,ESE,112,9.2,9.2,51,0.00,CLR,OVC,0.00,200.0,WeatherDisplay:10.37,2013-04-22 15:24:00,
2013-04-22 10:29:00,63.7,44.7,30.09,SSE,158,12.7,12.7,50,0.00,CLR,OVC,0.00,200.0,WeatherDisplay:10.37,2013-04-22 15:29:00,
2013-04-22 10:34:00,64.0,45.5,30.06,SE,135,8.1,8.1,51,0.00,CLR,OVC,0.00,200.0,WeatherDisplay:10.37,2013-04-22 15:34:00,
2013-04-22 10:39:00,65.1,46.5,30.06,ESE,112,10.7,10.7,51,0.00,CLR,OVC,0.00,300.0,WeatherDisplay:10.37,2013-04-22 15:39:00,
2013-04-22 10:44:00,64.9,45.3,30.06,SSE,158,9.2,9.2,49,0.00,CLR,OVC,0.00,200.0,WeatherDisplay:10.37,2013-04-22 15:44:00,
2013-04-22 10:49:00,65.8,46.1,30.06,ESE,112,8.1,8.1,49,0.00,CLR,OVC,0.00,400.0,WeatherDisplay:10.37,2013-04-22 15:49:00,
2013-04-22 10:54:00,66.4,46.1,30.06,SSE,158,9.2,9.2,48,0.00,CLR,OVC,0.00,300.0,WeatherDisplay:10.37,2013-04-22 15:54:00,
2013-04-22 10:59:00,67.3,46.4,30.06,ESE,112,8.1,8.1,47,0.00,CLR,OVC,0.00,400.0,WeatherDisplay:10.37,2013-04-22 15:59:00,
2013-04-22 11:04:00,68.7,47.7,30.06,SSE,158,9.8,9.8,47,0.00,CLR,OVC,0.00,400.0,WeatherDisplay:10.37,2013-04-22 16:04:00,
2013-04-22 11:09:00,68.7,47.1,30.06,ESE,112,10.4,10.4,46,0.00,CLR,OVC,0.00,400.0,WeatherDisplay:10.37,2013-04-22 16:09:00,
2013-04-22 11:14:00,68.5,46.3,30.06,SSE,158,11.5,11.5,45,0.00,CLR,OVC,0.00,400.0,WeatherDisplay:10.37,2013-04-22 16:14:00,
2013-04-22 11:19:00,70.3,48.0,30.06,ESE,112,8.1,8.1,45,0.00,CLR,OVC,0.00,500.0,WeatherDisplay:10.37,2013-04-22 16:19:00,
2013-04-22 11:24:00,69.8,46.3,30.06,SSE,158,12.7,12.7,43,0.00,CLR,OVC,0.00,400.0,WeatherDisplay:10.37,2013-04-22 16:24:00,
2013-04-22 11:29:00,70.5,46.9,30.06,SE,135,9.2,9.2,43,0.00,CLR,OVC,0.00,500.0,WeatherDisplay:10.37,2013-04-22 16:29:00,
2013-04-22 11:34:00,70.7,47.1,30.03,SSW,202,10.4,10.4,43,0.00,CLR,OVC,0.00,600.0,WeatherDisplay:10.37,2013-04-22 16:34:00,
2013-04-22 11:39:00,71.2,48.2,30.03,ESE,112,9.2,9.2,44,0.00,CLR,OVC,0.00,500.0,WeatherDisplay:10.37,2013-04-22 16:39:00,
2013-04-22 11:44:00,71.8,47.4,30.03,South,180,6.9,6.9,42,0.00,CLR,OVC,0.00,600.0,WeatherDisplay:10.37,2013-04-22 16:44:00,
2013-04-22 11:49:00,70.7,47.1,30.06,SSE,158,9.2,9.2,43,0.00,CLR,OVC,0.00,500.0,WeatherDisplay:10.37,2013-04-22 16:49:00,
2013-04-22 11:54:00,70.7,46.5,30.06,SSE,158,8.1,8.1,42,0.00,CLR,OVC,0.00,600.0,WeatherDisplay:10.37,2013-04-22 16:54:00,
2013-04-22 11:59:00,71.8,48.1,30.06,ESE,112,11.5,11.5,43,0.00,CLR,OVC,0.00,600.0,WeatherDisplay:10.37,2013-04-22 16:59:00,
2013-04-22 12:04:00,70.9,46.6,30.06,SSE,158,12.5,12.5,42,0.00,CLR,OVC,0.00,500.0,WeatherDisplay:10.37,2013-04-22 17:04:00,
2013-04-22 12:09:00,71.6,47.3,30.06,SSE,158,11.5,11.5,42,0.00,CLR,OVC,0.00,600.0,WeatherDisplay:10.37,2013-04-22 17:09:00,
2013-04-22 12:14:00,71.8,46.8,30.06,SSE,158,10.4,10.4,41,0.00,CLR,OVC,0.00,500.0,WeatherDisplay:10.37,2013-04-22 17:14:00,
2013-04-22 12:19:00,70.5,46.3,30.06,SSE,158,8.1,8.1,42,0.00,CLR,OVC,0.00,600.0,WeatherDisplay:10.37,2013-04-22 17:19:00,
2013-04-22 12:24:00,71.4,47.1,30.06,SSW,202,8.1,8.1,42,0.00,CLR,OVC,0.00,500.0,WeatherDisplay:10.37,2013-04-22 17:24:00,
2013-04-22 12:29:00,71.2,47.6,30.06,SSE,158,8.1,8.1,43,0.00,CLR,OVC,0.00,400.0,WeatherDisplay:10.37,2013-04-22 17:29:00,
2013-04-22 12:34:00,71.1,46.8,30.03,SSE,158,10.4,10.4,42,0.00,CLR,OVC,0.00,600.0,WeatherDisplay:10.37,2013-04-22 17:34:00,
2013-04-22 12:39:00,72.7,48.3,30.03,SE,135,8.7,8.7,42,0.00,CLR,OVC,0.00,600.0,WeatherDisplay:10.37,2013-04-22 17:39:00,
2013-04-22 12:44:00,71.2,46.3,30.03,SSE,158,10.4,10.4,41,0.00,CLR,OVC,0.00,700.0,WeatherDisplay:10.37,2013-04-22 17:44:00,
2013-04-22 12:49:00,71.6,46.6,30.00,ESE,112,13.0,13.0,41,0.00,CLR,OVC,0.00,600.0,WeatherDisplay:10.37,2013-04-22 17:49:00,
2013-04-22 12:54:00,71.6,46.6,30.00,SSE,158,10.4,10.4,41,0.00,CLR,OVC,0.00,600.0,WeatherDisplay:10.37,2013-04-22 17:54:00,
2013-04-22 12:59:00,72.5,47.5,30.00,SE,135,10.4,10.4,41,0.00,CLR,OVC,0.00,600.0,WeatherDisplay:10.37,2013-04-22 17:59:00,
2013-04-22 13:04:00,74.7,49.4,29.97,South,180,5.8,5.8,41,0.00,CLR,OVC,0.00,800.0,WeatherDisplay:10.37,2013-04-22 18:04:00,
2013-04-22 13:09:00,74.7,48.7,29.97,SE,135,11.5,11.5,40,0.00,CLR,OVC,0.00,500.0,WeatherDisplay:10.37,2013-04-22 18:09:00,
2013-04-22 13:14:00,72.5,47.5,29.97,SE,135,12.7,12.7,41,0.00,CLR,OVC,0.00,300.0,WeatherDisplay:10.37,2013-04-22 18:14:00,
2013-04-22 13:19:00,72.1,47.1,30.00,SSW,202,4.6,4.6,41,0.00,CLR,OVC,0.00,300.0,WeatherDisplay:10.37,2013-04-22 18:19:00,
2013-04-22 13:24:00,71.1,46.2,30.00,SSE,158,10.4,10.4,41,0.00,CLR,OVC,0.00,200.0,WeatherDisplay:10.37,2013-04-22 18:24:00,
2013-04-22 13:29:00,70.7,45.8,30.00,South,180,5.4,5.4,41,0.00,CLR,OVC,0.00,200.0,WeatherDisplay:10.37,2013-04-22 18:29:00,
2013-04-22 13:34:00,69.8,45.0,30.00,SSE,158,9.2,9.2,41,0.00,CLR,OVC,0.00,200.0,WeatherDisplay:10.37,2013-04-22 18:34:00,
2013-04-22 13:39:00,69.4,45.3,30.00,ESE,112,8.1,8.1,42,0.00,CLR,OVC,0.00,400.0,WeatherDisplay:10.37,2013-04-22 18:39:00,
2013-04-22 13:44:00,70.3,46.2,30.00,SE,135,8.1,8.1,42,0.00,CLR,OVC,0.00,200.0,WeatherDisplay:10.37,2013-04-22 18:44:00,
2013-04-22 13:49:00,70.2,46.0,29.97,SSE,158,8.1,8.1,42,0.00,CLR,OVC,0.00,200.0,WeatherDisplay:10.37,2013-04-22 18:49:00,
2013-04-22 13:54:00,70.2,46.0,29.97,SSE,158,6.2,6.2,42,0.00,CLR,OVC,0.00,200.0,WeatherDisplay:10.37,2013-04-22 18:54:00,
2013-04-22 13:59:00,69.4,45.3,29.97,SE,135,8.1,8.1,42,0.00,BKN,OVC,0.00,100.0,WeatherDisplay:10.37,2013-04-22 18:59:00,
2013-04-22 14:04:00,68.4,44.4,29.97,ESE,112,8.1,8.1,42,0.00,BKN,OVC,0.00,100.0,WeatherDisplay:10.37,2013-04-22 19:04:00,
2013-04-22 14:10:00,68.4,44.4,29.97,SE,135,8.1,8.1,42,0.00,BKN,OVC,0.00,100.0,WeatherDisplay:10.37,2013-04-22 19:10:00,
2013-04-22 14:15:00,70.3,46.2,29.97,ESE,112,11.5,11.5,42,0.00,CLR,OVC,0.00,500.0,WeatherDisplay:10.37,2013-04-22 19:15:00,
2013-04-22 14:20:00,72.7,47.6,29.91,East,90,15.0,15.0,41,0.00,CLR,OVC,0.00,700.0,WeatherDisplay:10.37,2013-04-22 19:20:00,
2013-04-22 14:25:00,72.6,47.5,29.91,SE,132,9.0,14.0,41,0.00,CLR,OVC,0.00,800.0,WeatherDisplay:10.37,2013-04-22 19:25:00,
2013-04-22 14:30:00,72.7,47.7,29.91,SE,131,7.0,14.0,41,0.00,CLR,OVC,0.00,500.0,WeatherDisplay:10.37,2013-04-22 19:30:00,
2013-04-22 14:35:00,74.3,48.4,29.94,ESE,112,12.8,12.8,40,0.00,SCT,OVC,0.00,300.0,WeatherDisplay:10.37,2013-04-22 19:35:00,
2013-04-22 14:40:00,71.7,46.1,29.94,SE,135,7.0,14.0,40,0.00,FEW,OVC,0.00,300.0,WeatherDisplay:10.37,2013-04-22 19:40:00,
2013-04-22 14:45:00,71.2,46.3,29.94,SE,135,12.7,12.7,41,0.00,FEW,OVC,0.00,300.0,WeatherDisplay:10.37,2013-04-22 19:45:00,
2013-04-22 14:50:00,72.9,47.8,29.91,SSE,158,10.4,10.4,41,0.00,FEW,OVC,0.00,300.0,WeatherDisplay:10.37,2013-04-22 19:50:00,
2013-04-22 14:55:00,72.5,46.8,29.91,SE,130,8.0,12.0,40,0.00,CLR,OVC,0.00,400.0,WeatherDisplay:10.37,2013-04-22 19:55:00,
2013-04-22 15:00:00,72.7,47.0,29.91,ESE,112,10.5,10.5,40,0.00,SCT,OVC,0.00,400.0,WeatherDisplay:10.37,2013-04-22 20:00:00,
2013-04-22 15:05:00,70.5,45.0,29.91,ESE,112,9.2,9.2,40,0.00,BKN,OVC,0.00,100.0,WeatherDisplay:10.37,2013-04-22 20:05:00,
2013-04-22 15:10:00,68.7,44.1,29.91,ESE,122,7.0,13.0,41,0.00,CLR,OVC,0.00,0.0,WeatherDisplay:10.37,2013-04-22 20:10:00,
2013-04-22 15:15:00,67.8,43.9,29.91,SSW,202,5.8,5.8,42,0.00,CLR,OVC,0.00,0.0,WeatherDisplay:10.37,2013-04-22 20:15:00,
2013-04-22 15:20:00,66.9,43.1,29.94,SE,135,5.8,5.8,42,0.00,CLR,OVC,0.00,0.0,WeatherDisplay:10.37,2013-04-22 20:20:00,
2013-04-22 15:25:00,66.4,42.6,29.94,SSE,158,3.0,6.0,42,0.00,CLR,OVC,0.00,0.0,WeatherDisplay:10.37,2013-04-22 20:25:00,
2013-04-22 15:30:00,65.7,42.5,29.94,South,180,4.6,4.6,43,0.00,CLR,OVC,0.00,0.0,WeatherDisplay:10.37,2013-04-22 20:30:00,
2013-04-22 15:35:00,65.7,42.5,29.91,SE,141,3.0,6.0,43,0.00,CLR,OVC,0.00,0.0,WeatherDisplay:10.37,2013-04-22 20:35:00,
2013-04-22 15:40:00,65.7,42.5,29.91,ENE,68,2.3,2.3,43,0.00,CLR,OVC,0.00,0.0,WeatherDisplay:10.37,2013-04-22 20:40:00,
2013-04-22 15:45:00,65.8,43.9,29.91,ESE,112,2.4,2.4,45,0.00,BKN,OVC,0.00,100.0,WeatherDisplay:10.37,2013-04-22 20:45:00,
2013-04-22 15:50:00,66.2,44.8,29.94,SSE,158,6.4,6.4,46,0.00,BKN,OVC,0.00,0.0,WeatherDisplay:10.37,2013-04-22 20:50:00,
2013-04-22 15:55:00,65.7,43.7,29.94,SSE,158,6.9,6.9,45,0.00,CLR,OVC,0.00,0.0,WeatherDisplay:10.37,2013-04-22 20:55:00,
2013-04-22 16:00:00,65.6,43.7,29.94,SE,139,7.0,13.0,45,0.00,CLR,OVC,0.00,0.0,WeatherDisplay:10.37,2013-04-22 21:00:00,
2013-04-22 16:05:00,65.4,43.5,29.88,ESE,119,7.0,13.0,45,0.00,CLR,OVC,0.00,0.0,WeatherDisplay:10.37,2013-04-22 21:05:00,
2013-04-22 16:10:00,64.0,44.5,29.88,ESE,112,6.9,6.9,49,0.00,CLR,OVC,0.00,0.0,WeatherDisplay:10.37,2013-04-22 21:10:00,
2013-04-22 16:15:00,63.7,43.6,29.88,ESE,112,5.8,5.8,48,0.00,CLR,OVC,0.00,0.0,WeatherDisplay:10.37,2013-04-22 21:15:00,
2013-04-22 16:20:00,63.9,43.2,29.88,NW,315,2.3,2.3,47,0.00,CLR,OVC,0.00,0.0,WeatherDisplay:10.37,2013-04-22 21:20:00,
2013-04-22 16:25:00,64.0,43.4,29.88,SW,225,2.4,2.4,47,0.00,CLR,OVC,0.00,0.0,WeatherDisplay:10.37,2013-04-22 21:25:00,
2013-04-22 16:30:00,64.9,44.2,29.88,SSE,158,3.5,3.5,47,0.00,CLR,OVC,0.00,0.0,WeatherDisplay:10.37,2013-04-22 21:30:00,
2013-04-22 16:35:00,66.5,45.1,29.88,South,170,3.0,4.0,46,0.00,BKN,OVC,0.00,100.0,WeatherDisplay:10.37,2013-04-22 21:35:00,
2013-04-22 16:40:00,67.8,45.7,29.88,ESE,112,6.9,6.9,45,0.00,BKN,OVC,0.00,100.0,WeatherDisplay:10.37,2013-04-22 21:40:00,
2013-04-22 16:45:00,67.7,45.6,29.88,SE,132,6.0,7.0,45,0.00,BKN,OVC,0.00,100.0,WeatherDisplay:10.37,2013-04-22 21:45:00,
2013-04-22 16:50:00,67.8,45.7,29.88,SE,143,6.0,7.0,45,0.00,CLR,OVC,0.00,0.0,WeatherDisplay:10.37,2013-04-22 21:50:00,
2013-04-22 16:55:00,67.8,45.7,29.88,SSE,158,5.8,5.8,45,0.00,CLR,OVC,0.00,0.0,WeatherDisplay:10.37,2013-04-22 21:55:00,
2013-04-22 17:00:00,67.9,45.2,29.88,SSE,149,3.0,6.0,44,0.00,CLR,OVC,0.00,0.0,WeatherDisplay:10.37,2013-04-22 22:00:00,
2013-04-22 17:05:00,68.7,45.9,29.88,SSE,158,3.5,3.5,44,0.00,CLR,OVC,0.00,100.0,WeatherDisplay:10.37,2013-04-22 22:05:00,
2013-04-22 17:10:00,69.3,46.4,29.88,SSE,158,2.3,2.3,44,0.00,BKN,OVC,0.00,0.0,WeatherDisplay:10.37,2013-04-22 22:10:00,
2013-04-22 17:15:00,70.6,47.6,29.88,SE,137,1.0,2.0,44,0.00,BKN,OVC,0.00,100.0,WeatherDisplay:10.37,2013-04-22 22:15:00,
2013-04-22 17:20:00,73.4,50.2,29.88,SE,135,2.4,2.4,44,0.00,BKN,OVC,0.00,100.0,WeatherDisplay:10.37,2013-04-22 22:20:00,
2013-04-22 17:25:00,74.1,50.2,29.88,SE,135,2.9,2.9,43,0.00,BKN,OVC,0.00,100.0,WeatherDisplay:10.37,2013-04-22 22:25:00,
2013-04-22 17:30:00,74.5,50.5,29.88,ESE,118,3.0,6.0,43,0.00,BKN,OVC,0.00,100.0,WeatherDisplay:10.37,2013-04-22 22:30:00,
2013-04-22 17:35:00,73.0,49.2,29.88,ENE,68,5.8,5.8,43,0.00,BKN,OVC,0.00,100.0,WeatherDisplay:10.37,2013-04-22 22:35:00,
2013-04-22 17:40:00,72.0,47.6,29.88,East,84,3.0,7.0,42,0.00,CLR,OVC,0.00,0.0,WeatherDisplay:10.37,2013-04-22 22:40:00,
2013-04-22 17:45:00,70.2,46.7,29.88,ENE,76,5.0,7.0,43,0.00,CLR,OVC,0.00,0.0,WeatherDisplay:10.37,2013-04-22 22:45:00,
2013-04-22 17:50:00,68.9,46.1,29.85,ESE,112,4.6,4.6,44,0.00,CLR,OVC,0.00,0.0,WeatherDisplay:10.37,2013-04-22 22:50:00,
2013-04-22 17:55:00,68.7,45.9,29.85,SE,125,1.0,5.0,44,0.00,CLR,OVC,0.00,0.0,WeatherDisplay:10.37,2013-04-22 22:55:00,
2013-04-22 18:00:00,68.6,45.8,29.85,SE,143,3.0,7.0,44,0.00,CLR,OVC,0.00,0.0,WeatherDisplay:10.37,2013-04-22 23:00:00,
2013-04-22 18:05:00,68.7,45.3,29.88,ESE,112,8.1,8.1,43,0.00,CLR,OVC,0.00,0.0,WeatherDisplay:10.37,2013-04-22 23:05:00,
2013-04-22 18:10:00,68.7,45.3,29.88,SSE,158,9.2,9.2,43,0.00,CLR,OVC,0.00,0.0,WeatherDisplay:10.37,2013-04-22 23:10:00,
2013-04-22 18:15:00,69.1,45.6,29.88,East,90,5.8,5.8,43,0.00,CLR,OVC,0.00,0.0,WeatherDisplay:10.37,2013-04-22 23:15:00,
2013-04-22 18:20:00,69.3,45.8,29.88,SE,135,8.1,8.1,43,0.00,CLR,OVC,0.00,0.0,WeatherDisplay:10.37,2013-04-22 23:20:00,
2013-04-22 18:25:00,69.6,46.1,29.88,SE,135,5.9,5.9,43,0.00,CLR,OVC,0.00,0.0,WeatherDisplay:10.37,2013-04-22 23:25:00,
2013-04-22 18:30:00,70.0,46.4,29.88,ESE,112,6.9,6.9,43,0.00,CLR,OVC,0.00,0.0,WeatherDisplay:10.37,2013-04-22 23:30:00,
2013-04-22 18:35:00,71.2,48.2,29.88,SE,135,2.4,2.4,44,0.00,CLR,OVC,0.00,0.0,WeatherDisplay:10.37,2013-04-22 23:35:00,
2013-04-22 18:40:00,70.3,47.4,29.88,SSE,158,5.8,5.8,44,0.00,CLR,OVC,0.00,0.0,WeatherDisplay:10.37,2013-04-22 23:40:00,
2013-04-22 18:45:00,69.6,46.7,29.88,SSE,158,3.5,3.5,44,0.00,CLR,OVC,0.00,0.0,WeatherDisplay:10.37,2013-04-22 23:45:00,
2013-04-22 18:50:00,68.5,45.8,29.88,SE,135,3.6,3.6,44,0.00,CLR,OVC,0.00,0.0,WeatherDisplay:10.37,2013-04-22 23:50:00,
2013-04-22 18:55:00,67.8,45.7,29.88,SSE,158,4.6,4.6,45,0.00,CLR,OVC,0.00,0.0,WeatherDisplay:10.37,2013-04-22 23:55:00,
2013-04-22 19:00:00,67.6,45.5,29.88,SSE,158,3.5,3.5,45,0.00,CLR,OVC,0.00,0.0,WeatherDisplay:10.37,2013-04-23 00:00:00,
2013-04-22 19:05:00,67.5,45.4,29.85,SSE,158,4.6,4.6,45,0.00,CLR,OVC,0.00,0.0,WeatherDisplay:10.37,2013-04-23 00:05:00,
2013-04-22 19:10:00,67.6,45.5,29.85,SE,135,2.3,2.3,45,0.00,CLR,OVC,0.00,0.0,WeatherDisplay:10.37,2013-04-23 00:10:00,
2013-04-22 19:15:00,67.6,45.5,29.85,SE,135,2.3,2.3,45,0.00,CLR,OVC,0.00,0.0,WeatherDisplay:10.37,2013-04-23 00:15:00,
2013-04-22 19:20:00,67.1,45.6,29.85,ESE,112,1.4,0.0,46,0.00,CLR,OVC,0.00,0.0,WeatherDisplay:10.37,2013-04-23 00:20:00,
2013-04-22 19:25:00,66.2,44.8,29.85,ESE,112,3.5,3.5,46,0.00,CLR,OVC,0.00,0.0,WeatherDisplay:10.37,2013-04-23 00:25:00,
2013-04-22 19:30:00,65.7,44.9,29.85,ESE,112,2.3,2.3,47,0.00,CLR,OVC,0.00,0.0,WeatherDisplay:10.37,2013-04-23 00:30:00,
2013-04-22 19:35:00,64.8,44.1,29.85,SSE,158,0.0,0.0,47,0.00,CLR,OVC,0.00,0.0,WeatherDisplay:10.37,2013-04-23 00:35:00,
2013-04-22 19:40:00,63.9,43.8,29.85,SSE,158,0.0,0.0,48,0.00,CLR,OVC,0.00,0.0,WeatherDisplay:10.37,2013-04-23 00:40:00,
2013-04-22 19:45:00,63.1,43.1,29.85,ESE,112,1.6,0.0,48,0.00,CLR,OVC,0.00,0.0,WeatherDisplay:10.37,2013-04-23 00:45:00,
2013-04-22 19:50:00,62.4,43.0,29.88,ESE,112,1.1,0.0,49,0.00,CLR,OVC,0.00,0.0,WeatherDisplay:10.37,2013-04-23 00:50:00,
2013-04-22 19:55:00,61.3,43.0,29.88,ESE,112,0.0,0.0,51,0.00,CLR,OVC,0.00,0.0,WeatherDisplay:10.37,2013-04-23 00:55:00,
2013-04-22 20:00:00,60.4,42.7,29.88,East,90,1.1,1.1,52,0.00,CLR,OVC,0.00,0.0,WeatherDisplay:10.37,2013-04-23 01:00:00,
2013-04-22 20:05:00,59.7,43.5,29.88,ENE,68,3.5,3.5,55,0.00,CLR,OVC,0.00,0.0,WeatherDisplay:10.37,2013-04-23 01:05:00,
2013-04-22 20:10:00,59.0,43.3,29.88,East,90,2.3,2.3,56,0.00,CLR,OVC,0.00,0.0,WeatherDisplay:10.37,2013-04-23 01:10:00,
2013-04-22 20:15:00,59.0,43.3,29.88,East,90,1.4,1.4,56,0.00,CLR,OVC,0.00,0.0,WeatherDisplay:10.37,2013-04-23 01:15:00,
2013-04-22 20:20:00,58.5,42.8,29.88,East,90,2.3,2.3,56,0.00,CLR,OVC,0.00,0.0,WeatherDisplay:10.37,2013-04-23 01:20:00,
2013-04-22 20:25:00,58.5,42.8,29.88,ENE,68,2.3,2.3,56,0.00,CLR,OVC,0.00,0.0,WeatherDisplay:10.37,2013-04-23 01:25:00,
2013-04-22 20:30:00,58.8,43.6,29.88,East,90,2.4,2.4,57,0.00,CLR,OVC,0.00,0.0,WeatherDisplay:10.37,2013-04-23 01:30:00,
2013-04-22 20:35:00,59.7,44.0,29.88,East,90,3.5,3.5,56,0.00,CLR,OVC,0.00,0.0,WeatherDisplay:10.37,2013-04-23 01:35:00,
2013-04-22 20:40:00,59.7,44.5,29.88,ESE,112,3.5,3.5,57,0.00,CLR,OVC,0.00,0.0,WeatherDisplay:10.37,2013-04-23 01:40:00,
2013-04-22 20:45:00,59.5,43.8,29.88,ESE,112,3.5,3.5,56,0.00,CLR,OVC,0.00,0.0,WeatherDisplay:10.37,2013-04-23 01:45:00,
2013-04-22 20:50:00,59.0,43.3,29.91,SE,135,2.2,0.0,56,0.00,CLR,OVC,0.00,0.0,WeatherDisplay:10.37,2013-04-23 01:50:00,
2013-04-22 20:55:00,59.7,44.0,29.91,SSE,158,3.6,3.6,56,0.00,CLR,OVC,0.00,0.0,WeatherDisplay:10.37,2013-04-23 01:55:00,
2013-04-22 21:00:00,60.8,44.5,29.91,SE,135,5.8,5.8,55,0.00,CLR,OVC,0.00,0.0,WeatherDisplay:10.37,2013-04-23 02:00:00,
2013-04-22 21:05:00,61.5,44.7,29.91,ESE,112,4.7,4.7,54,0.00,CLR,OVC,0.00,0.0,WeatherDisplay:10.37,2013-04-23 02:05:00,
2013-04-22 21:10:00,61.9,45.0,29.91,SE,135,4.0,4.0,54,0.00,CLR,OVC,0.00,0.0,WeatherDisplay:10.37,2013-04-23 02:10:00,
2013-04-22 21:15:00,61.9,45.0,29.91,ESE,112,3.5,3.5,54,0.00,CLR,OVC,0.00,0.0,WeatherDisplay:10.37,2013-04-23 02:15:00,
2013-04-22 21:20:00,61.5,44.7,29.91,ESE,112,5.8,5.8,54,0.00,CLR,OVC,0.00,0.0,WeatherDisplay:10.37,2013-04-23 02:20:00,
2013-04-22 21:25:00,60.8,44.5,29.91,SE,135,5.8,5.8,55,0.00,CLR,OVC,0.00,0.0,WeatherDisplay:10.37,2013-04-23 02:25:00,
2013-04-22 21:30:00,60.8,44.5,29.91,SE,135,8.1,8.1,55,0.00,CLR,OVC,0.00,0.0,WeatherDisplay:10.37,2013-04-23 02:30:00,
2013-04-22 21:35:00,61.0,44.7,29.91,SSE,158,8.1,8.1,55,0.00,CLR,OVC,0.00,0.0,WeatherDisplay:10.37,2013-04-23 02:35:00,
2013-04-22 21:40:00,61.0,44.2,29.91,ESE,112,8.1,8.1,54,0.00,CLR,OVC,0.00,0.0,WeatherDisplay:10.37,2013-04-23 02:40:00,
2013-04-22 21:45:00,61.0,44.2,29.91,SSE,158,6.9,6.9,54,0.00,CLR,OVC,0.00,0.0,WeatherDisplay:10.37,2013-04-23 02:45:00,
2013-04-22 21:50:00,61.0,44.2,29.91,ESE,112,10.5,10.5,54,0.00,CLR,OVC,0.00,0.0,WeatherDisplay:10.37,2013-04-23 02:50:00,
2013-04-22 21:55:00,61.2,44.4,29.91,ESE,112,4.6,4.6,54,0.00,CLR,OVC,0.00,0.0,WeatherDisplay:10.37,2013-04-23 02:55:00,
2013-04-22 22:00:00,61.3,44.5,29.91,ESE,112,8.1,8.1,54,0.00,CLR,OVC,0.00,0.0,WeatherDisplay:10.37,2013-04-23 03:00:00,
2013-04-22 22:05:00,61.5,44.7,29.91,ESE,112,6.9,6.9,54,0.00,CLR,OVC,0.00,0.0,WeatherDisplay:10.37,2013-04-23 03:05:00,
2013-04-22 22:10:00,61.7,44.4,29.91,ESE,112,5.8,5.8,53,0.00,CLR,OVC,0.00,0.0,WeatherDisplay:10.37,2013-04-23 03:10:00,
2013-04-22 22:15:00,62.1,44.7,29.91,SSE,158,5.8,5.8,53,0.00,CLR,OVC,0.00,0.0,WeatherDisplay:10.37,2013-04-23 03:15:00,
2013-04-22 22:20:00,62.1,44.7,29.91,SSE,158,6.9,6.9,53,0.00,CLR,OVC,0.00,0.0,WeatherDisplay:10.37,2013-04-23 03:20:00,
2013-04-22 22:25:00,62.2,44.9,29.91,SE,135,8.1,8.1,53,0.00,CLR,OVC,0.00,0.0,WeatherDisplay:10.37,2013-04-23 03:25:00,
2013-04-22 22:30:00,62.6,45.2,29.91,SE,135,7.1,7.1,53,0.00,CLR,OVC,0.00,0.0,WeatherDisplay:10.37,2013-04-23 03:30:00,
2013-04-22 22:35:00,63.0,45.1,29.91,SE,135,12.8,12.8,52,0.00,CLR,OVC,0.00,0.0,WeatherDisplay:10.37,2013-04-23 03:35:00,
2013-04-22 22:40:00,63.1,45.2,29.91,SSE,158,9.2,9.2,52,0.00,CLR,OVC,0.00,0.0,WeatherDisplay:10.37,2013-04-23 03:40:00,
2013-04-22 22:45:00,63.1,45.2,29.91,ESE,112,9.2,9.2,52,0.00,CLR,OVC,0.00,0.0,WeatherDisplay:10.37,2013-04-23 03:45:00,
2013-04-22 22:50:00,63.0,45.1,29.94,SE,135,8.1,8.1,52,0.00,CLR,OVC,0.00,0.0,WeatherDisplay:10.37,2013-04-23 03:50:00,
2013-04-22 22:55:00,63.1,45.2,29.94,SE,135,5.8,5.8,52,0.00,CLR,OVC,0.00,0.0,WeatherDisplay:10.37,2013-04-23 03:55:00,
2013-04-22 23:00:00,63.1,45.2,29.94,SSE,158,8.1,8.1,52,0.00,CLR,OVC,0.00,0.0,WeatherDisplay:10.37,2013-04-23 04:00:00,
2013-04-22 23:01:00,63.1,45.2,29.94,SSE,158,8.1,8.1,52,0.00,CLR,OVC,0.00,0.0,WeatherDisplay:10.37,2013-04-23 04:01:00,
2013-04-22 23:06:00,63.3,45.4,29.91,SSE,158,8.1,8.1,52,0.00,CLR,OVC,0.00,0.0,WeatherDisplay:10.37,2013-04-23 04:06:00,
2013-04-22 23:11:00,63.5,45.6,29.91,SSE,158,8.1,8.1,52,0.00,CLR,OVC,0.00,0.0,WeatherDisplay:10.37,2013-04-23 04:11:00,
2013-04-22 23:16:00,63.9,45.9,29.91,SE,135,11.5,11.5,52,0.00,CLR,OVC,0.00,0.0,WeatherDisplay:10.37,2013-04-23 04:16:00,
2013-04-22 23:21:00,64.0,46.1,29.91,ESE,112,8.1,9.2,52,0.00,CLR,OVC,0.00,0.0,WeatherDisplay:10.37,2013-04-23 04:21:00,
2013-04-22 23:26:00,63.9,45.9,29.91,SSE,158,10.5,10.5,52,0.00,CLR,OVC,0.00,0.0,WeatherDisplay:10.37,2013-04-23 04:26:00,
2013-04-22 23:31:00,63.5,45.6,29.85,SSE,158,9.2,9.2,52,0.00,CLR,OVC,0.00,0.0,WeatherDisplay:10.37,2013-04-23 04:31:00,
2013-04-22 23:36:00,63.7,45.7,29.85,SSE,158,15.0,15.0,52,0.00,CLR,OVC,0.00,0.0,WeatherDisplay:10.37,2013-04-23 04:36:00,
2013-04-22 23:41:00,63.5,45.6,29.85,South,180,12.7,12.7,52,0.00,CLR,OVC,0.00,0.0,WeatherDisplay:10.37,2013-04-23 04:41:00,
2013-04-22 23:46:00,63.5,45.6,29.88,SE,135,9.7,9.7,52,0.00,CLR,OVC,0.00,0.0,WeatherDisplay:10.37,2013-04-23 04:46:00,
2013-04-22 23:51:00,63.5,45.6,29.88,SE,135,11.5,11.5,52,0.00,CLR,OVC,0.00,0.0,WeatherDisplay:10.37,2013-04-23 04:51:00,
2013-04-22 23:56:00,63.3,45.4,29.88,SE,135,6.9,6.9,52,0.00,CLR,OVC,0.00,0.0,WeatherDisplay:10.37,2013-04-23 04:56:00,